Regional Weather Roundup
Issued by NWS

Home | Current Version | Previous Version | Text Only | Print | Product List | Glossary Off
Versions: 1 2 3 4 5 6 7 8 9 10 11 12 13 14 15 16 17 18 19 20 21 22 23 24 25 26 27 28 29 30 31 32 33 34 35 36 37 38 39 40 41 42 43 44 45 46 47 48 49 50

000
ASUS43 KLOT 180109
RWRIL

ILLINOIS REGIONAL WEATHER ROUNDUP
NATIONAL WEATHER SERVICE CHICAGO/ROMEOVILLE IL
800 PM CDT TUE OCT 17 2017

NOTE: "FAIR" INDICATES FEW OR NO CLOUDS BELOW 12,000 FEET WITH NO
SIGNIFICANT WEATHER AND/OR OBSTRUCTIONS TO VISIBILITY.

* THESE STATIONS ARE NOT UNDER NWS QUALITY CONTROL. THEY ALSO MAY NOT
  REPORT WEATHER SUCH AS PRECIPITATION OR FOG.

ILZ001-002-007-009-015-016-024-180200-
NORTHWEST ILLINOIS

CITY           SKY/WX    TMP DP  RH WIND       PRES   REMARKS
MOLINE         CLEAR     56  43  61 S5        30.11R
STERLING*      CLEAR     59  43  55 VRB5        N/A
SAVANNA*       CLEAR     55  43  64 S3        30.10S
$$

ILZ003-004-008-010-011-017-018-180200-
NORTH CENTRAL ILLINOIS

CITY           SKY/WX    TMP DP  RH WIND       PRES   REMARKS
ROCKFORD       CLEAR     56  42  59 S9        30.12R
FREEPORT*      CLEAR     53  40  61 S8        30.12R
ROCHELLE*      CLEAR     53  42  66 S7        30.13S
DE KALB*       CLEAR     56  41  57 SW9       30.14R
PERU*          CLEAR     54  40  59 S8        30.15S
$$

ILZ005-006-012>014-019>023-180200-
NORTHEAST ILLINOIS

CITY           SKY/WX    TMP DP  RH WIND       PRES   REMARKS
CHICAGO-OHARE  PTCLDY    62  41  46 S8        30.12R
CHICAGO-MIDWAY CLEAR     63  41  44 S12G22    30.14R
AURORA         CLEAR     59  41  51 S8        30.14S
LANSING*       CLEAR     57  44  60 SW9       30.16S
JOLIET*        CLEAR     60  42  51 S7        30.16R
WAUKEGAN       CLEAR     58  42  55 SW10      30.10R
DUPAGE AIRPORT CLEAR     58  42  55 S8        30.13R
KANKAKEE*      CLEAR     57  39  52 S8        30.19S
WHEELING       CLEAR     62  42  47 S6        30.14R
MORRIS*        CLEAR     56  41  57 S6        30.14S
ROMEOVILLE*    CLEAR     58  42  54 SW10      30.15R
NORTHERLY ISL    N/A     64  37  36 SW9         N/A
$$

LMZ740>746-180200-
SOUTHERN LAKE MICHIGAN

STATION/POSITION SKY/WX   TEMP    WIND        PRES    VSBY  WAVE
                          AIR SEA DIR/SP/G                  HT/PER
                          (F)     (DEG/KT/KT) (MB)    (MI)  (FT/S)
SOUTHERN BUOY              63 61  210/ 14/ 16 1019.2          3/ 5
WILMETTE HARBOR            62 58  190/  8/ 10   N/A           1/ 3
HARRISON CRIB              66     200/ 16/ 18   N/A
BURNHAM HARBOR             64     180/  9/ 12   N/A
CALUMET HARBOR             63     190/  7/ 10 1020.0R
BURNS HARBOR               62     190/ 10/ 13 1021.3R
MICHIGAN CITY              62     180/ 10/ 13   N/A
MICHIGAN CITY 6N           61 57  200/ 10/ 12   N/A           1/ 3
ST. JOSEPH                 61 58  200/ 10/ 14 1021.4R         2/ 4
$$

ILZ025>027-034>036-040-047-049-050-058-095>099-180200-
WEST-CENTRAL ILLINOIS

CITY           SKY/WX    TMP DP  RH WIND       PRES   REMARKS
QUINCY         CLEAR     59  42  53 S8        30.14R
GALESBURG*     CLEAR     56  43  62 SE6       30.15S
MACOMB*        CLEAR     55  42  62 S7        30.17R
JACKSONVILLE*  CLEAR     55  41  60 SE6       30.18R
PITTSFIELD*    CLEAR     57  43  59 S3        30.17S
$$

ILZ028>032-037-038-041>044-048-051>054-059>061-180200-
CENTRAL ILLINOIS

CITY           SKY/WX    TMP DP  RH WIND       PRES   REMARKS
PONTIAC        CLEAR     56  42  58 S7        30.19R
BLOOMINGTON    CLEAR     52  41  66 S12       30.20R
DECATUR        CLEAR     54  39  57 S7        30.21S
PEORIA         CLEAR     58  42  55 S10       30.16R
LACON*         CLEAR     57  40  54 S5        30.15R
LINCOLN*       CLEAR     55  42  62 S5        30.19S
SPRINGFIELD    CLEAR     54  42  64 S6        30.19R
TAYLORVILLE    CLEAR     51  40  65 S5        30.21S
$$

ILZ033-039-045-046-055>057-062-063-180200-
EAST-CENTRAL ILLINOIS

CITY           SKY/WX    TMP DP  RH WIND       PRES   REMARKS
CHAMPAIGN      CLEAR     54  40  59 S8        30.22R
DANVILLE*      CLEAR     52  40  63 S7        30.20R
RANTOUL*       CLEAR     53  43  68 S6        30.21R
MATTOON        CLEAR     55  42  61 S3        30.22R
PARIS*         CLEAR     47  40  76 S5        30.24S
$$

ILZ079-100>102-180200-
SOUTHWEST ILLINOIS

CITY           SKY/WX    TMP DP  RH WIND       PRES   REMARKS
ALTON          CLEAR     52  43  71 CALM      30.20R
BELLEVILLE     CLEAR     53  41  64 S7        30.23R
CAHOKIA*       CLEAR     54  40  59 SE6       30.20R
SPARTA*        CLEAR     55  42  61 SE3       30.23S
$$

ILZ064>066-069>071-074>076-080>082-084>086-088>090-092>094-180200-
SOUTH-CENTRAL ILLINOIS

CITY           SKY/WX    TMP DP  RH WIND       PRES   REMARKS
CARBONDALE     CLEAR     49  46  90 S3        30.23S
CAIRO*         CLEAR     48  46  93 CALM      30.24R
EFFINGHAM*     CLEAR     50  44  78 CALM      30.24R
MARION         CLEAR     54  46  74 CALM      30.24S
MT. VERNON     CLEAR     51  44  77 CALM      30.23S
CENTRALIA*     CLEAR     52  42  71 S5        30.22S
SALEM*         CLEAR     57  40  53 CALM      30.23R
METROPOLIS*    CLEAR     51  46  83 CALM      30.25S
$$

ILZ067-068-072-073-078-083-087-091-180200-
SOUTHEAST ILLINOIS

CITY           SKY/WX    TMP DP  RH WIND       PRES   REMARKS
LAWRENCEVILLE  CLEAR     54  44  69 S3        30.24S
FLORA*         CLEAR     55  42  62 S8        30.23S
FAIRFIELD*     CLEAR     55  42  63 CALM      30.23R
HARRISBURG*    CLEAR     51  47  85 CALM      30.25R
ROBINSON*      CLEAR     45  41  87 CALM      30.24S
CARMI*         CLEAR     50  42  73 S3        30.25R
$$

ABBREVIATIONS USED IN REMARKS
   TC - TEMPERATURE IN CELSIUS
  WCI - WIND CHILL INDEX
   HX - HEAT INDEX
  VSB - VISIBILITY
$$





USA.gov is the U.S. government's official web portal to all federal, state and local government web resources and services.